Weather History for Fort Drum, NY

Change the Weather History Date:

Wednesday, January 2, 2013

  Actual Average Record
Temperature  
Mean Temperature 9 °F -  
Max Temperature 23 °F 28 °F 53 °F (2000)
Min Temperature -5 °F 13 °F -22 °F (1999)
Degree Days  
Heating Degree Days 56    
Moisture  
Dew Point 4 °F    
Average Humidity 74    
Maximum Humidity 83    
Minimum Humidity 55    
Precipitation  
Precipitation 0.00 in - - ()
Sea Level Pressure  
Sea Level Pressure 30.06 in    
Wind  
Wind Speed 7 mph (NW)    
Max Wind Speed 17 mph    
Max Gust Speed 21 mph    
Visibility 10 miles    
Events Snow    
Averages and records for this station are not official NWS values.
T = Trace of Precipitation, MM = Missing Value Source: NWS Daily Summary

Daily Weather History Graph

Daily Weather History Graph

Search for Another Location

Airport:

Trip Planner

Search our weather history database for the weather conditions in past years. The results will help you decide how hot, cold, wet, or windy it might be!

Date:

Astronomy

Jan. 02, 2013 Rise Set
Actual Time 7:37 AM EST 4:36 PM EST
Civil Twilight 7:04 AM EST 5:09 PM EST
Nautical Twilight 6:28 AM EST 5:45 PM EST
Astronomical Twilight 5:53 AM EST 6:20 PM EST
Moon 10:19 PM EST (1/2) 10:07 AM EST (1/2)
Length of Visible Light 10h 04m
Length of Day
8h 58m
Waning Gibbous, 75% of the Moon is Illuminated
Jan 2
Waning Gibbous
Jan 4
Last Quarter
Jan 11
New
Jan 18
First Quarter
Jan 26
Full

Hourly Weather History & Observations

Time (EST) Temp. Windchill Dew Point Humidity Pressure Visibility Wind Dir Wind Speed Gust Speed Precip Events Conditions
12:55 AM 6.8 °F -2.0 °F 1.6 °F 79% 29.97 in 10.0 mi SSW 4.6 mph - N/A   Overcast
1:55 AM 9.3 °F -0.5 °F 3.7 °F 78% 29.95 in 10.0 mi South 5.8 mph - N/A   Mostly Cloudy
2:55 AM 10.2 °F -0.6 °F 5.5 °F 81% 29.94 in 10.0 mi SSE 6.9 mph - N/A   Overcast
3:55 AM 12.2 °F 1.7 °F 7.9 °F 83% 29.92 in 10.0 mi SW 6.9 mph - N/A   Overcast
4:30 AM 17.6 °F 7.3 °F 12.2 °F 79% 29.91 in 10.0 mi SW 8.1 mph - N/A Snow Light Snow
4:35 AM 17.6 °F 8.2 °F 12.2 °F 79% 29.91 in 10.0 mi SW 6.9 mph - N/A Snow Light Snow
4:51 AM 19.4 °F 9.5 °F 14.0 °F 80% 29.91 in 10.0 mi SW 8.1 mph - N/A Snow Light Snow
4:55 AM 19.2 °F 11.3 °F 14.2 °F 81% 29.91 in 10.0 mi SW 5.8 mph - 0.00 in Snow Light Snow
5:02 AM 19.4 °F 12.8 °F 14.0 °F 80% 29.91 in 8.0 mi WSW 4.6 mph - N/A Snow Light Snow
5:06 AM 19.4 °F 10.4 °F 14.0 °F 80% 29.91 in 8.0 mi WSW 6.9 mph - N/A Snow Light Snow
5:44 AM 21.2 °F 11.7 °F 15.8 °F 80% 29.91 in 10.0 mi West 8.1 mph - N/A Snow Light Snow
5:55 AM 22.8 °F 11.5 °F 16.9 °F 78% 29.91 in 10.0 mi WNW 11.5 mph 18.4 mph 0.00 in   Overcast
6:06 AM 23.0 °F 13.1 °F 15.8 °F 74% 29.91 in 10.0 mi West 9.2 mph - N/A   Overcast
6:55 AM 22.6 °F 12.6 °F 15.8 °F 75% 29.93 in 10.0 mi WNW 9.2 mph - 0.00 in   Overcast
7:55 AM 21.7 °F 12.3 °F 15.3 °F 76% 29.96 in 10.0 mi WNW 8.1 mph - N/A   Overcast
8:24 AM 21.2 °F 13.6 °F 15.8 °F 80% 29.98 in 10.0 mi WNW 5.8 mph - N/A   Overcast
8:32 AM 21.2 °F 13.6 °F 15.8 °F 80% 29.99 in 10.0 mi WNW 5.8 mph - N/A   Overcast
8:37 AM 21.2 °F 12.6 °F 15.8 °F 80% 29.99 in 10.0 mi WNW 6.9 mph - N/A   Overcast
8:55 AM 21.2 °F 10.9 °F 15.6 °F 79% 30.00 in 10.0 mi NW 9.2 mph - 0.00 in   Overcast
9:31 AM 19.4 °F 7.2 °F 14.0 °F 80% 30.04 in 10.0 mi North 11.5 mph 19.6 mph N/A   Overcast
9:55 AM 15.4 °F -0.6 °F 10.0 °F 79% 30.06 in 9.0 mi NNE 17.3 mph - 0.00 in   Overcast
10:10 AM 14.0 °F -0.8 °F 6.8 °F 73% 30.07 in 10.0 mi NNE 13.8 mph 20.7 mph N/A   Overcast
10:21 AM 14.0 °F -0.2 °F 6.8 °F 73% 30.07 in 10.0 mi North 12.7 mph - N/A   Overcast
10:55 AM 12.7 °F -1.8 °F 5.2 °F 72% 30.08 in 10.0 mi North 12.7 mph 17.3 mph 0.00 in   Overcast
11:55 AM 12.0 °F -2.0 °F 2.3 °F 65% 30.09 in 10.0 mi North 11.5 mph 17.3 mph N/A   Mostly Cloudy
12:55 PM 12.0 °F -1.3 °F 0.5 °F 60% 30.11 in 10.0 mi North 10.4 mph - N/A   Scattered Clouds
1:55 PM 10.2 °F -1.7 °F -2.9 °F 55% 30.14 in 10.0 mi NNW 8.1 mph - N/A   Clear
3:55 PM 6.3 °F -5.4 °F -5.6 °F 58% 30.21 in 10.0 mi Variable 6.9 mph - N/A   Clear
4:55 PM 2.8 °F -11.7 °F -6.3 °F 66% 30.23 in 10.0 mi North 9.2 mph - N/A   Clear
5:55 PM -1.5 °F -13.3 °F -9.9 °F 67% 30.24 in 10.0 mi NNE 5.8 mph - N/A   Clear
6:55 PM -3.5 °F -17.1 °F -12.1 °F 67% 30.26 in 10.0 mi NE 6.9 mph - N/A   Clear
7:55 PM -4.4 °F -19.5 °F -12.6 °F 68% 30.26 in 10.0 mi East 8.1 mph - N/A   Clear
8:55 PM -3.8 °F -18.8 °F -11.7 °F 69% 30.27 in 10.0 mi East 8.1 mph - N/A   Partly Cloudy
9:55 PM -3.6 °F -15.9 °F -11.2 °F 70% 30.27 in 10.0 mi ESE 5.8 mph - N/A   Mostly Cloudy
10:55 PM -4.4 °F -18.2 °F -12.1 °F 69% 30.28 in 10.0 mi ESE 6.9 mph - N/A   Partly Cloudy
11:47 PM -5.8 °F -14.5 °F -13.0 °F 71% 30.30 in 10.0 mi SE 3.5 mph - N/A Snow Light Snow
11:55 PM -5.1 °F -13.6 °F -11.6 °F 74% 30.29 in 10.0 mi SE 3.5 mph - 0.00 in Snow Light Snow
11:56 PM -5.8 °F -14.5 °F -11.2 °F 77% 30.29 in 10.0 mi SE 3.5 mph - N/A   Partly Cloudy